Location: Janeiro
(34.9957°N, 76.7652°W)
Time: 20:14:59
(UTC+00:00)

Cosmos 1428 Rocket - Pass Details

Date: 14 December 2019
Orbit: 948 x 987 km, 82.9° (Epoch: 18 January)

Event Time Altitude Azimuth Distance (km) Brightness Sun altitude
Rises 22:32:35 0° 176° (S) 3,623 7.7 -7.5°
Reaches altitude 10° 22:35:05 10° 173° (S) 2,686 7.0 -8.0°
Maximum altitude 22:41:09 65° 93° (E) 1,061 4.5 -9.1°
Drops below altitude 10° 22:47:19 10° 13° (NNE) 2,728 6.5 -10.3°
Sets 22:49:52 0° 10° (N) 3,685 7.2 -10.8°
